Location: Unspecified
(0.0000°N, 0.0000°E)
Time: 12:15:45
(UTC+00:00)

SR - Pass Details

Date: 20 November 2019
Orbit: 573 x 882 km, 66.7° (Epoch: 10 December)

Event Time Altitude Azimuth Distance (km) Brightness Sun altitude
Rises 02:02:08 0° 309° (NW) 3,332 - -51.2°
Reaches altitude 10° 02:05:34 10° 289° (WNW) 2,344 - -50.5°
Maximum altitude 02:08:45 16° 252° (WSW) 1,901 - -49.8°
Drops below altitude 10° 02:11:50 10° 214° (SW) 2,224 - -49.2°
Sets 02:14:59 0° 193° (SSW) 3,078 - -48.5°
